OMD2026 LEMD-LETL

Flight info

Callsign OMD2026
Flight time 0h 28m
Altitude 22000
Route NANDO
Aircraft A359/H-SDE2E3GHIJ3J4J5LM1ORWXY/LB1D1

Departure

Time 2026-05-05 19:06
Airport Adolfo Suárez Madrid–Barajas Airport (LEMD)

Arrival

Time 2026-05-05 19:34
Airport Teruel Airport (LETL)
Time Latitude Longitude Altitude Speed Heading
2026-05-05 18:47 40.49807 -3.56877 1951 ft 0 kts 90°
2026-05-05 18:54 40.49807 -3.56893 1979 ft 4 kts 90°
2026-05-05 18:54 40.49806 -3.56929 1979 ft 4 kts 89°
2026-05-05 18:54 40.49806 -3.56964 1981 ft 3 kts 89°
2026-05-05 18:54 40.49809 -3.56993 1984 ft 6 kts 129°
2026-05-05 18:55 40.49828 -3.57005 1985 ft 5 kts 180°
2026-05-05 18:55 40.49845 -3.57002 1985 ft 2 kts 179°
2026-05-05 18:55 40.49826 -3.56884 1983 ft 0 kts 179°
2026-05-05 18:59 40.49817 -3.56884 1983 ft 5 kts 184°
2026-05-05 18:59 40.49767 -3.56912 1983 ft 10 kts 214°
2026-05-05 18:59 40.49704 -3.56974 1984 ft 12 kts 216°
2026-05-05 19:00 40.49628 -3.57001 1986 ft 13 kts 181°
2026-05-05 19:00 40.49517 -3.57004 1987 ft 19 kts 181°
2026-05-05 19:00 40.49371 -3.57001 1981 ft 23 kts 179°
2026-05-05 19:00 40.49322 -3.57005 1983 ft 6 kts 194°
2026-05-05 19:01 40.49290 -3.57045 1988 ft 6 kts 243°
2026-05-05 19:01 40.49273 -3.57100 1989 ft 7 kts 235°
2026-05-05 19:01 40.49230 -3.57113 1990 ft 8 kts 181°
2026-05-05 19:01 40.49180 -3.57147 1991 ft 8 kts 250°
2026-05-05 19:02 40.49180 -3.57229 1989 ft 10 kts 274°
2026-05-05 19:02 40.49183 -3.57332 1990 ft 13 kts 271°
2026-05-05 19:02 40.49207 -3.57441 1994 ft 13 kts 322°
2026-05-05 19:02 40.49272 -3.57453 1991 ft 0 kts
2026-05-05 19:05 40.49279 -3.57452 1989 ft 7 kts
2026-05-05 19:05 40.49621 -3.57455 1993 ft 93 kts 359°
2026-05-05 19:05 40.50537 -3.57460 2000 ft 167 kts 359°
2026-05-05 19:05 40.51812 -3.57424 2595 ft 187 kts 357°
2026-05-05 19:06 40.53117 -3.57359 3587 ft 193 kts 359°
2026-05-05 19:06 40.54505 -3.57288 4351 ft 207 kts 359°
2026-05-05 19:06 40.56005 -3.57215 5084 ft 225 kts 358°
2026-05-05 19:06 40.57574 -3.56859 6157 ft 232 kts 14°
2026-05-05 19:07 40.59116 -3.56175 7326 ft 236 kts 15°
2026-05-05 19:07 40.60693 -3.55488 8473 ft 242 kts 13°
2026-05-05 19:07 40.62331 -3.54826 9621 ft 250 kts 13°
2026-05-05 19:07 40.64042 -3.54299 10687 ft 254 kts
2026-05-05 19:08 40.65808 -3.54069 11866 ft 256 kts
2026-05-05 19:08 40.67590 -3.53905 13070 ft 259 kts
2026-05-05 19:08 40.69393 -3.53537 14170 ft 268 kts 14°
2026-05-05 19:08 40.71027 -3.52277 15161 ft 284 kts 40°
2026-05-05 19:09 40.72309 -3.50195 15958 ft 302 kts 53°
2026-05-05 19:09 40.73490 -3.47852 16909 ft 310 kts 54°
2026-05-05 19:09 40.74681 -3.45479 17877 ft 315 kts 56°
2026-05-05 19:09 40.75803 -3.42944 18680 ft 328 kts 63°
2026-05-05 19:10 40.76298 -3.39958 19367 ft 344 kts 88°
2026-05-05 19:10 40.75789 -3.36846 20074 ft 355 kts 116°
2026-05-05 19:10 40.74466 -3.34119 20768 ft 362 kts 130°
2026-05-05 19:10 40.72898 -3.31463 21442 ft 372 kts 131°
2026-05-05 19:11 40.71214 -3.28811 21877 ft 374 kts 139°
2026-05-05 19:11 40.69196 -3.26704 21970 ft 370 kts 157°
2026-05-05 19:11 40.66796 -3.25246 21973 ft 394 kts 165°
2026-05-05 19:11 40.64214 -3.23922 21968 ft 411 kts 165°
2026-05-05 19:12 40.61535 -3.22541 21957 ft 416 kts 165°
2026-05-05 19:12 40.58835 -3.21129 21967 ft 418 kts 165°
2026-05-05 19:12 40.56138 -3.19712 21964 ft 418 kts 165°
2026-05-05 19:12 40.53435 -3.18288 21960 ft 418 kts 165°
2026-05-05 19:13 40.50736 -3.16867 21959 ft 418 kts 165°
2026-05-05 19:13 40.48037 -3.15447 21958 ft 418 kts 165°
2026-05-05 19:13 40.45341 -3.14029 21957 ft 418 kts 165°
2026-05-05 19:13 40.42640 -3.12609 21909 ft 417 kts 165°
2026-05-05 19:14 40.40014 -3.10942 21948 ft 426 kts 152°
2026-05-05 19:14 40.37674 -3.08522 21953 ft 430 kts 144°
2026-05-05 19:14 40.35432 -3.05931 21952 ft 430 kts 143°
2026-05-05 19:14 40.33188 -3.03332 21955 ft 430 kts 144°
2026-05-05 19:15 40.30937 -3.00748 21947 ft 431 kts 144°
2026-05-05 19:15 40.28682 -2.98170 21946 ft 430 kts 144°
2026-05-05 19:15 40.26420 -2.95592 21948 ft 430 kts 144°
2026-05-05 19:15 40.24163 -2.93026 21947 ft 430 kts 144°
2026-05-05 19:16 40.21905 -2.90462 21950 ft 430 kts 144°
2026-05-05 19:16 40.19642 -2.87896 21945 ft 429 kts 144°
2026-05-05 19:16 40.17394 -2.85349 21946 ft 428 kts 144°
2026-05-05 19:16 40.15155 -2.82785 21942 ft 429 kts 142°
2026-05-05 19:17 40.13266 -2.79738 21949 ft 438 kts 123°
2026-05-05 19:17 40.12112 -2.76045 21946 ft 441 kts 108°
2026-05-05 19:17 40.11265 -2.72187 21937 ft 442 kts 107°
2026-05-05 19:17 40.10439 -2.68327 21945 ft 442 kts 107°
2026-05-05 19:18 40.09595 -2.64467 21945 ft 443 kts 107°
2026-05-05 19:18 40.08735 -2.60595 21950 ft 443 kts 108°
2026-05-05 19:18 40.07869 -2.56738 21948 ft 444 kts 108°
2026-05-05 19:18 40.06994 -2.52865 21946 ft 444 kts 108°
2026-05-05 19:19 40.06118 -2.49008 21944 ft 444 kts 108°
2026-05-05 19:19 40.05240 -2.45150 21946 ft 443 kts 108°
2026-05-05 19:19 40.04363 -2.41303 21945 ft 444 kts 108°
2026-05-05 19:19 40.03480 -2.37442 21887 ft 442 kts 108°
2026-05-05 19:20 40.02625 -2.33619 21220 ft 439 kts 107°
2026-05-05 19:20 40.01874 -2.29723 20280 ft 444 kts 103°
2026-05-05 19:20 40.01274 -2.25758 19355 ft 448 kts 100°
2026-05-05 19:20 40.00833 -2.21737 18463 ft 448 kts 97°
2026-05-05 19:21 40.00553 -2.17700 17609 ft 445 kts 94°
2026-05-05 19:21 40.00432 -2.13692 16872 ft 438 kts 90°
2026-05-05 19:21 40.00461 -2.09765 16177 ft 430 kts 88°
2026-05-05 19:21 40.00634 -2.05903 15490 ft 423 kts 85°
2026-05-05 19:22 40.00944 -2.02116 14817 ft 416 kts 82°
2026-05-05 19:22 40.01382 -1.98425 14153 ft 409 kts 79°
2026-05-05 19:22 40.01943 -1.94816 13461 ft 402 kts 77°
2026-05-05 19:22 40.02604 -1.91367 12806 ft 393 kts 74°
2026-05-05 19:23 40.03384 -1.87948 12184 ft 384 kts 71°
2026-05-05 19:23 40.04249 -1.84685 11585 ft 376 kts 68°
2026-05-05 19:23 40.05197 -1.81548 10982 ft 368 kts 65°
2026-05-05 19:23 40.06222 -1.78539 10603 ft 356 kts 63°
2026-05-05 19:24 40.07286 -1.75717 10470 ft 337 kts 60°
2026-05-05 19:24 40.08357 -1.73125 10338 ft 320 kts 58°
2026-05-05 19:24 40.09472 -1.70645 10215 ft 304 kts 56°
2026-05-05 19:24 40.10581 -1.68365 10076 ft 290 kts 53°
2026-05-05 19:25 40.11704 -1.66220 9958 ft 284 kts 51°
2026-05-05 19:25 40.12893 -1.64105 9756 ft 296 kts 50°
2026-05-05 19:25 40.14179 -1.61972 9668 ft 298 kts 48°
2026-05-05 19:25 40.15485 -1.59928 9160 ft 297 kts 46°
2026-05-05 19:26 40.16817 -1.57867 8693 ft 296 kts 47°
2026-05-05 19:26 40.18108 -1.55777 8347 ft 294 kts 49°
2026-05-05 19:26 40.19339 -1.53657 8036 ft 293 kts 51°
2026-05-05 19:26 40.20513 -1.51491 7697 ft 290 kts 53°
2026-05-05 19:27 40.21621 -1.49295 7388 ft 288 kts 54°
2026-05-05 19:27 40.22664 -1.47073 7127 ft 286 kts 57°
2026-05-05 19:27 40.23611 -1.44889 6896 ft 264 kts 58°
2026-05-05 19:27 40.24438 -1.42838 6643 ft 246 kts 60°
2026-05-05 19:28 40.25152 -1.40951 6283 ft 237 kts 61°
2026-05-05 19:28 40.25830 -1.39043 5929 ft 227 kts 62°
2026-05-05 19:28 40.26474 -1.37178 5701 ft 222 kts 62°
2026-05-05 19:28 40.27099 -1.35352 5444 ft 218 kts 63°
2026-05-05 19:29 40.27716 -1.33546 5205 ft 217 kts 63°
2026-05-05 19:29 40.28326 -1.31744 5018 ft 217 kts 63°
2026-05-05 19:29 40.28924 -1.29977 4932 ft 204 kts 63°
2026-05-05 19:29 40.29488 -1.28303 4827 ft 199 kts 62°
2026-05-05 19:30 40.30044 -1.26655 4736 ft 197 kts 63°
2026-05-05 19:30 40.30576 -1.25073 4650 ft 183 kts 62°
2026-05-05 19:30 40.31078 -1.23596 4541 ft 170 kts 61°
2026-05-05 19:30 40.31450 -1.22731 4489 ft 160 kts 51°
2026-05-05 19:31 40.32208 -1.21786 4397 ft 143 kts 27°
2026-05-05 19:31 40.33094 -1.21377 4345 ft 131 kts
2026-05-05 19:31 40.34001 -1.21430 4297 ft 130 kts 346°
2026-05-05 19:31 40.34805 -1.21875 4227 ft 120 kts 330°
2026-05-05 19:32 40.35606 -1.22194 4380 ft 122 kts 353°
2026-05-05 19:32 40.36728 -1.22041 4291 ft 120 kts 10°
2026-05-05 19:32 40.37545 -1.21799 4197 ft 121 kts
2026-05-05 19:32 40.38110 -1.21693 3989 ft 121 kts
2026-05-05 19:33 40.38950 -1.21661 3740 ft 122 kts 359°
2026-05-05 19:33 40.39787 -1.21682 3483 ft 119 kts 355°
2026-05-05 19:33 40.40604 -1.21740 3376 ft 116 kts 355°
2026-05-05 19:33 40.41320 -1.21773 3353 ft 88 kts 359°
2026-05-05 19:34 40.41785 -1.21790 3358 ft 43 kts 358°
2026-05-05 19:34 40.42084 -1.21805 3349 ft 44 kts 358°
2026-05-05 19:34 40.42308 -1.21836 3327 ft 22 kts 338°
2026-05-05 19:35 40.42452 -1.21837 3322 ft 7 kts 114°
2026-05-05 19:35 40.42408 -1.21824 3324 ft 8 kts 181°
2026-05-05 19:35 40.42348 -1.21823 3326 ft 12 kts 178°
2026-05-05 19:35 40.42213 -1.21815 3332 ft 21 kts 177°
2026-05-05 19:36 40.42063 -1.21807 3348 ft 22 kts 178°
2026-05-05 19:36 40.41912 -1.21800 3360 ft 22 kts 178°
2026-05-05 19:36 40.41752 -1.21790 3358 ft 24 kts 177°
2026-05-05 19:36 40.41578 -1.21779 3354 ft 26 kts 177°
2026-05-05 19:37 40.41398 -1.21774 3361 ft 15 kts 190°
2026-05-05 19:37 40.41365 -1.21844 3366 ft 9 kts 266°
2026-05-05 19:37 40.41365 -1.21936 3357 ft 11 kts 270°
2026-05-05 19:37 40.41364 -1.22051 3359 ft 14 kts 269°
2026-05-05 19:38 40.41358 -1.22195 3359 ft 18 kts 266°
2026-05-05 19:38 40.41351 -1.22369 3367 ft 17 kts 272°
2026-05-05 19:38 40.41365 -1.22480 3364 ft 9 kts 285°
2026-05-05 19:38 40.41415 -1.22531 3368 ft 10 kts 359°
2026-05-05 19:39 40.41484 -1.22486 3366 ft 13 kts 30°
2026-05-05 19:39 40.41514 -1.22467 3367 ft 2 kts 19°
2026-05-05 19:39 40.41544 -1.22455 3367 ft 3 kts 18°
2026-05-05 19:39 40.41545 -1.22455 3367 ft 0 kts 18°